When you browse on this site, cookies collect data to enhance your experience and personalize the content and advertising you see.
Visit our Privacy Policy to learn more. By continuing to use the site, you agree to this use of cookies and data.

Tiempo cada hora Brisbane

Hoy, 13 Julio, Lunes

Tiempo Temperatura Precipitaciones Viento Presión Humedad
00:00 +16°C° 0 mm 1 mps 760 mmHg 87%
01:00 +16°C° 0 mm 1 mps 760 mmHg 88%
02:00 +16°C° 0 mm 1 mps 760 mmHg 88%
03:00 +16°C° 0 mm 1 mps 760 mmHg 88%
04:00 +15°C° 0 mm 2 mps 760 mmHg 87%
05:00 +15°C° 0 mm 2 mps 760 mmHg 85%
06:00 +14°C° 0 mm 2 mps 760 mmHg 83%
07:00 +14°C° 0 mm 2 mps 760 mmHg 81%
08:00 +15°C° 0 mm 2 mps 761 mmHg 75%
09:00 +16°C° 0 mm 2 mps 761 mmHg 69%
10:00 +17°C° 0 mm 3 mps 761 mmHg 61%
11:00 +19°C° 0 mm 3 mps 761 mmHg 54%
12:00 +20°C° 0 mm 3 mps 760 mmHg 46%
13:00 +21°C° 0 mm 3 mps 759 mmHg 39%
14:00 +20°C° 0 mm 3 mps 759 mmHg 38%
15:00 +20°C° 0 mm 4 mps 759 mmHg 37%
16:00 +19°C° 0 mm 4 mps 759 mmHg 37%
17:00 +18°C° 0 mm 4 mps 760 mmHg 40%
18:00 +15°C° 0 mm 4 mps 761 mmHg 44%
19:00 +14°C° 0 mm 4 mps 761 mmHg 48%
20:00 +13°C° 0 mm 4 mps 761 mmHg 51%
21:00 +12°C° 0 mm 4 mps 762 mmHg 53%
22:00 +11°C° 0 mm 4 mps 762 mmHg 55%
23:00 +11°C° 0 mm 4 mps 761 mmHg 57%

Mañana, 14 Julio, Martes

Tiempo Temperatura Precipitaciones Viento Presión Humedad
00:00 +11°C° 0 mm 4 mps 761 mmHg 60%
01:00 +10°C° 0 mm 4 mps 761 mmHg 62%
02:00 +10°C° 0 mm 4 mps 761 mmHg 64%
03:00 +9°C° 0 mm 5 mps 760 mmHg 66%
04:00 +8°C° 0 mm 5 mps 760 mmHg 68%
05:00 +8°C° 0 mm 5 mps 760 mmHg 69%
06:00 +8°C° 0 mm 5 mps 761 mmHg 70%
07:00 +8°C° 0 mm 5 mps 761 mmHg 71%
08:00 +10°C° 0 mm 6 mps 761 mmHg 64%
09:00 +11°C° 0 mm 6 mps 761 mmHg 57%
10:00 +14°C° 0 mm 6 mps 761 mmHg 49%
11:00 +15°C° 0 mm 7 mps 760 mmHg 45%
12:00 +16°C° 0 mm 7 mps 759 mmHg 41%
13:00 +18°C° 0 mm 7 mps 758 mmHg 37%
14:00 +19°C° 0 mm 6 mps 758 mmHg 39%
15:00 +19°C° 0 mm 6 mps 758 mmHg 41%
16:00 +19°C° 0 mm 5 mps 758 mmHg 43%
17:00 +16°C° 0 mm 5 mps 759 mmHg 48%
18:00 +15°C° 0 mm 5 mps 759 mmHg 54%
19:00 +14°C° 0 mm 6 mps 760 mmHg 59%
20:00 +13°C° 0 mm 5 mps 760 mmHg 62%
21:00 +13°C° 0 mm 5 mps 760 mmHg 65%
22:00 +13°C° 0 mm 4 mps 761 mmHg 67%
23:00 +12°C° 0 mm 4 mps 760 mmHg 67%

Pasado mañana, 15 Julio, Miércoles

Tiempo Temperatura Precipitaciones Viento Presión Humedad
00:00 +12°C° 0 mm 4 mps 760 mmHg 67%
01:00 +12°C° 0 mm 4 mps 760 mmHg 67%
02:00 +11°C° 0 mm 4 mps 760 mmHg 69%
03:00 +11°C° 0 mm 4 mps 760 mmHg 70%
04:00 +11°C° 0 mm 4 mps 760 mmHg 71%
05:00 +10°C° 0 mm 4 mps 760 mmHg 70%
06:00 +10°C° 0 mm 4 mps 760 mmHg 69%
07:00 +10°C° 0 mm 4 mps 760 mmHg 68%
08:00 +12°C° 0 mm 4 mps 760 mmHg 62%
09:00 +14°C° 0 mm 4 mps 760 mmHg 55%
10:00 +17°C° 0 mm 4 mps 760 mmHg 48%
11:00 +18°C° 0 mm 4 mps 759 mmHg 44%
12:00 +20°C° 0 mm 3 mps 759 mmHg 39%
13:00 +21°C° 0 mm 3 mps 758 mmHg 35%
14:00 +21°C° 0 mm 3 mps 758 mmHg 36%
15:00 +21°C° 0 mm 3 mps 758 mmHg 38%
16:00 +20°C° 0 mm 3 mps 758 mmHg 39%
17:00 +19°C° 0 mm 3 mps 758 mmHg 43%
18:00 +17°C° 0 mm 4 mps 759 mmHg 48%
19:00 +15°C° 0 mm 4 mps 759 mmHg 52%
20:00 +14°C° 0 mm 4 mps 759 mmHg 54%
21:00 +13°C° 0 mm 4 mps 760 mmHg 57%
22:00 +12°C° 0 mm 4 mps 760 mmHg 59%
23:00 +11°C° 0 mm 3 mps 760 mmHg 60%

16 Julio, Jueves

Tiempo Temperatura Precipitaciones Viento Presión Humedad
00:00 +11°C° 0 mm 3 mps 760 mmHg 62%
01:00 +10°C° 0 mm 3 mps 760 mmHg 63%
02:00 +10°C° 0 mm 3 mps 759 mmHg 64%
03:00 +10°C° 0 mm 3 mps 759 mmHg 65%
04:00 +9°C° 0 mm 3 mps 759 mmHg 65%
05:00 +9°C° 0 mm 2 mps 760 mmHg 66%
06:00 +9°C° 0 mm 2 mps 760 mmHg 66%
07:00 +9°C° 0 mm 2 mps 760 mmHg 66%
08:00 +12°C° 0 mm 2 mps 760 mmHg 60%
09:00 +14°C° 0 mm 2 mps 760 mmHg 54%
10:00 +16°C° 0 mm 3 mps 760 mmHg 48%
11:00 +18°C° 0 mm 3 mps 760 mmHg 44%
12:00 +19°C° 0 mm 3 mps 759 mmHg 41%
13:00 +21°C° 0 mm 3 mps 758 mmHg 38%
14:00 +21°C° 0 mm 3 mps 758 mmHg 39%
15:00 +21°C° 0 mm 2 mps 758 mmHg 40%
16:00 +21°C° 0 mm 2 mps 758 mmHg 41%
17:00 +19°C° 0 mm 2 mps 758 mmHg 46%
18:00 +17°C° 0 mm 2 mps 759 mmHg 51%
19:00 +15°C° 0 mm 2 mps 759 mmHg 56%
20:00 +14°C° 0 mm 2 mps 760 mmHg 58%
21:00 +14°C° 0 mm 2 mps 760 mmHg 61%
22:00 +13°C° 0 mm 2 mps 760 mmHg 64%
23:00 +13°C° 0 mm 2 mps 760 mmHg 65%

17 Julio, Viernes

Tiempo Temperatura Precipitaciones Viento Presión Humedad
00:00 +12°C° 0 mm 2 mps 760 mmHg 65%
01:00 +12°C° 0 mm 2 mps 760 mmHg 66%
02:00 +12°C° 0 mm 2 mps 760 mmHg 67%
03:00 +10°C° 0 mm 2 mps 760 mmHg 69%
04:00 +10°C° 0 mm 2 mps 760 mmHg 70%
05:00 +10°C° 0 mm 2 mps 760 mmHg 70%
06:00 +10°C° 0 mm 3 mps 761 mmHg 70%
07:00 +10°C° 0 mm 3 mps 761 mmHg 70%
08:00 +12°C° 0 mm 3 mps 761 mmHg 64%
09:00 +14°C° 0 mm 3 mps 761 mmHg 57%
10:00 +18°C° 0 mm 3 mps 761 mmHg 51%
11:00 +19°C° 0 mm 3 mps 761 mmHg 49%
12:00 +21°C° 0 mm 3 mps 761 mmHg 48%
13:00 +22°C° 0 mm 3 mps 760 mmHg 47%
14:00 +22°C° 0 mm 3 mps 760 mmHg 49%
15:00 +21°C° 0 mm 4 mps 760 mmHg 52%
16:00 +21°C° 0 mm 4 mps 760 mmHg 54%
17:00 +20°C° 0 mm 3 mps 761 mmHg 61%
18:00 +18°C° 0 mm 3 mps 762 mmHg 67%
19:00 +16°C° 0 mm 2 mps 762 mmHg 73%
20:00 +16°C° 0 mm 2 mps 762 mmHg 76%
21:00 +15°C° 0 mm 2 mps 763 mmHg 79%
22:00 +14°C° 0 mm 2 mps 763 mmHg 82%
23:00 +14°C° 0 mm 2 mps 763 mmHg 83%

18 Julio, Sábado

Tiempo Temperatura Precipitaciones Viento Presión Humedad
00:00 +14°C° 0 mm 2 mps 763 mmHg 84%
01:00 +13°C° 0 mm 2 mps 763 mmHg 86%
02:00 +13°C° 0 mm 2 mps 763 mmHg 86%
03:00 +13°C° 0 mm 2 mps 762 mmHg 86%
04:00 +13°C° 0 mm 2 mps 762 mmHg 86%
05:00 +13°C° 0 mm 2 mps 763 mmHg 86%
06:00 +13°C° 0 mm 2 mps 763 mmHg 86%
07:00 +13°C° 0 mm 2 mps 764 mmHg 87%
08:00 +15°C° 0 mm 2 mps 764 mmHg 78%
09:00 +17°C° 0 mm 2 mps 763 mmHg 69%
10:00 +19°C° 0 mm 2 mps 763 mmHg 60%
11:00 +20°C° 0 mm 2 mps 763 mmHg 56%
12:00 +21°C° 0 mm 3 mps 762 mmHg 52%
13:00 +22°C° 0 mm 3 mps 762 mmHg 48%
14:00 +21°C° 0 mm 3 mps 762 mmHg 50%
15:00 +21°C° 0 mm 3 mps 761 mmHg 52%
16:00 +21°C° 0 mm 3 mps 761 mmHg 55%
17:00 +19°C° 0 mm 2 mps 762 mmHg 61%
18:00 +18°C° 0 mm 2 mps 762 mmHg 68%
19:00 +16°C° 0 mm 2 mps 763 mmHg 74%
20:00 +16°C° 0 mm 1 mps 763 mmHg 77%
21:00 +15°C° 0 mm 1 mps 763 mmHg 79%
22:00 +15°C° 0 mm 1 mps 763 mmHg 82%
23:00 +14°C° 0 mm 1 mps 763 mmHg 83%
Mostrar más